Indianapolis, IN

4:42 AM EST on December 07, 2019 (GMT -0500)
Indianapolis Terry

Weather History for KTYQ - November, 2019

Change the Weather History Date:

Sunday, November 17, 2019

  Actual Average (WUND) Record (WUND)
Temperature  
Mean Temperature 31 °F -  
Max Temperature 42 °F - - (-1)
Min Temperature 20 °F - - (-1)
Degree Days  
Heating Degree Days 34    
Moisture  
Dew Point 27 °F    
Average Humidity 88    
Maximum Humidity 100    
Minimum Humidity 59    
Precipitation  
Precipitation 0.00 in - - ()
Sea Level Pressure  
Sea Level Pressure 30.03 in    
Wind  
Wind Speed 1 mph ()    
Max Wind Speed 7 mph    
Max Gust Speed -    
Visibility 9.3 miles    
Events      
Averages and records for this station are not official NWS values.
T = Trace of Precipitation, MM = Missing Value Source: Averaged Metar Reports

Daily Weather History Graph

Daily Weather History Graph

Search for Another Location

Airport or City:

Astronomy

Nov. 17, 2019 Rise Set
Actual Time 7:32 AM EST 5:27 PM EST
Civil Twilight 7:03 AM EST 5:56 PM EST
Nautical Twilight 6:30 AM EST 6:29 PM EST
Astronomical Twilight 5:58 AM EST 7:01 PM EST
Moon 10:03 PM EST (11/17) 12:17 PM EST (11/17)
Length of Visible Light 10h 53m
Length of Day
9h 54m
Waning Gibbous, 73% of the Moon is Illuminated
Nov 17
Waning Gibbous
Nov 19
Last Quarter
Nov 26
New
Dec 4
First Quarter
Dec 12
Full

Hourly Weather History & Observations

Time (EST) Temp. Windchill Dew Point Humidity Pressure Visibility Wind Dir Wind Speed Gust Speed Precip Events Conditions
12:15 AM 27.0 °F 23.0 °F 27.0 °F 100% 30.19 in 10.0 mi East 3.5 mph - N/A   Clear
12:35 AM 26.6 °F 21.2 °F 26.6 °F 100% 30.19 in 10.0 mi East 4.6 mph - N/A   Clear
12:50 AM 26.4 °F - 26.4 °F 100% 30.20 in 10.0 mi Calm Calm - N/A   Clear
1:15 AM 24.1 °F - 24.1 °F 100% 30.19 in 10.0 mi Calm Calm - N/A   Clear
1:35 AM 24.3 °F - 24.3 °F 100% 30.18 in 10.0 mi Calm Calm - N/A   Clear
1:55 AM 23.2 °F - 23.2 °F 100% 30.18 in 10.0 mi Calm Calm - N/A   Clear
2:15 AM 22.1 °F - 22.1 °F 100% 30.17 in 10.0 mi Calm Calm - N/A   Clear
2:35 AM 23.5 °F 17.6 °F 23.5 °F 100% 30.17 in 10.0 mi East 4.6 mph - N/A   Clear
2:55 AM 23.4 °F - 23.4 °F 100% 30.17 in 10.0 mi Calm Calm - N/A   Clear
3:15 AM 23.2 °F - 23.2 °F 100% 30.16 in 10.0 mi Calm Calm - N/A   Clear
3:35 AM 22.1 °F - 22.1 °F 100% 30.16 in 7.0 mi Calm Calm - N/A   Clear
3:55 AM 21.9 °F - 21.9 °F 100% 30.16 in 10.0 mi Calm Calm - N/A   Clear
4:15 AM 21.2 °F - 21.2 °F 100% 30.16 in 7.0 mi Calm Calm - N/A   Clear
4:35 AM 21.0 °F - 21.0 °F 100% 30.15 in 7.0 mi Calm Calm - N/A   Clear
4:55 AM 21.4 °F - 21.4 °F 100% 30.14 in 7.0 mi Calm Calm - N/A   Clear
5:15 AM 21.2 °F - 21.2 °F 100% 30.14 in 7.0 mi Calm Calm - N/A   Clear
5:35 AM 20.8 °F - 20.8 °F 100% 30.14 in 7.0 mi Calm Calm - N/A   Clear
5:55 AM 20.1 °F - 20.1 °F 100% 30.13 in 7.0 mi Calm Calm - N/A   Clear
6:15 AM 21.6 °F - 21.6 °F 100% 30.13 in 7.0 mi Calm Calm - N/A   Clear
6:35 AM 20.7 °F - 20.7 °F 100% 30.13 in 7.0 mi Calm Calm - N/A   Clear
6:55 AM 21.2 °F 14.9 °F 21.2 °F 100% 30.11 in 7.0 mi East 4.6 mph - N/A   Clear
7:15 AM 22.6 °F 18.0 °F 22.6 °F 100% 30.10 in 10.0 mi East 3.5 mph - N/A   Clear
7:35 AM 21.4 °F 16.6 °F 21.4 °F 100% 30.11 in 10.0 mi ESE 3.5 mph - N/A   Clear
7:55 AM 22.8 °F - 22.8 °F 100% 30.10 in 10.0 mi Calm Calm - N/A   Clear
8:15 AM 23.7 °F - 23.7 °F 100% 30.10 in 10.0 mi Calm Calm - N/A   Clear
8:35 AM 25.2 °F - 25.2 °F 100% 30.11 in 10.0 mi Calm Calm - N/A   Clear
8:55 AM 26.6 °F - 26.6 °F 100% 30.10 in 10.0 mi Calm Calm - N/A   Clear
9:15 AM 28.0 °F - 28.0 °F 100% 30.09 in 10.0 mi Calm Calm - N/A   Clear
9:35 AM 29.5 °F 25.9 °F 29.5 °F 100% 30.09 in 10.0 mi South 3.5 mph - N/A   Clear
9:55 AM 31.1 °F - 30.0 °F 96% 30.09 in 10.0 mi Calm Calm - N/A   Clear
10:15 AM 32.5 °F - 30.2 °F 91% 30.08 in 10.0 mi Calm Calm - N/A   Clear
10:35 AM 35.1 °F 32.2 °F 30.7 °F 84% 30.08 in 10.0 mi SSW 3.5 mph - N/A   Clear
10:55 AM 36.7 °F 32.9 °F 30.6 °F 78% 30.08 in 10.0 mi SW 4.6 mph - N/A   Clear
11:15 AM 37.9 °F 35.5 °F 30.2 °F 74% 30.08 in 10.0 mi SSW 3.5 mph - N/A   Clear
11:35 AM 39.0 °F 36.8 °F 29.7 °F 69% 30.06 in 10.0 mi West 3.5 mph - N/A   Clear
11:55 AM 39.4 °F 36.1 °F 30.0 °F 69% 30.05 in 10.0 mi SW 4.6 mph - N/A   Clear
12:15 PM 39.7 °F - 29.3 °F 66% 30.03 in 10.0 mi Calm Calm - N/A   Clear
12:35 PM 39.9 °F 37.8 °F 29.7 °F 67% 30.01 in 10.0 mi SSE 3.5 mph - N/A   Clear
12:55 PM 40.8 °F 36.2 °F 29.8 °F 65% 29.99 in 10.0 mi SSE 6.9 mph - N/A   Clear
1:15 PM 41.0 °F 38.0 °F 29.7 °F 64% 29.99 in 10.0 mi SSW 4.6 mph - N/A   Clear
1:35 PM 41.0 °F 39.0 °F 29.8 °F 64% 29.98 in 10.0 mi SE 3.5 mph - N/A   Clear
1:55 PM 41.4 °F 39.4 °F 29.3 °F 62% 29.96 in 10.0 mi South 3.5 mph - N/A   Clear
2:15 PM 42.1 °F - 29.3 °F 61% 29.95 in 10.0 mi Calm Calm - N/A   Clear
2:35 PM 42.1 °F 40.2 °F 29.3 °F 61% 29.96 in 10.0 mi WSW 3.5 mph - N/A   Clear
2:55 PM 41.9 °F - 29.3 °F 61% 29.96 in 10.0 mi Calm Calm - N/A   Clear
3:15 PM 42.1 °F - 29.5 °F 61% 29.95 in 10.0 mi Calm Calm - N/A   Clear
3:35 PM 42.1 °F 40.2 °F 28.8 °F 59% 29.94 in 10.0 mi SSE 3.5 mph - N/A   Clear
3:55 PM 42.1 °F 39.2 °F 29.1 °F 60% 29.94 in 10.0 mi South 4.6 mph - N/A   Clear
4:15 PM 41.9 °F 39.0 °F 29.1 °F 61% 29.93 in 10.0 mi SSE 4.6 mph - N/A   Mostly Cloudy
4:35 PM 41.5 °F 39.6 °F 29.1 °F 61% 29.92 in 10.0 mi SSE 3.5 mph - N/A   Scattered Clouds
4:55 PM 41.0 °F - 29.1 °F 63% 29.92 in 10.0 mi Calm Calm - N/A   Scattered Clouds
5:15 PM 40.3 °F - 29.7 °F 66% 29.92 in 10.0 mi Calm Calm - N/A   Scattered Clouds
5:35 PM 39.4 °F 37.2 °F 30.6 °F 71% 29.92 in 10.0 mi South 3.5 mph - N/A   Scattered Clouds
5:55 PM 38.8 °F - 30.2 °F 71% 29.92 in 10.0 mi Calm Calm - N/A   Scattered Clouds
6:15 PM 36.9 °F - 32.0 °F 83% 29.92 in 10.0 mi Calm Calm - N/A   Scattered Clouds
6:35 PM 36.1 °F - 32.0 °F 85% 29.91 in 10.0 mi Calm Calm - N/A   Clear
6:55 PM 35.1 °F 32.2 °F 31.6 °F 87% 29.91 in 10.0 mi ESE 3.5 mph - N/A   Clear
7:15 PM 33.6 °F - 31.8 °F 93% 29.91 in 10.0 mi Calm Calm - N/A   Clear
7:35 PM 33.3 °F - 31.8 °F 94% 29.91 in 10.0 mi Calm Calm - N/A   Clear
7:55 PM 31.6 °F - 31.5 °F 99% 29.91 in 10.0 mi Calm Calm - N/A   Clear
8:15 PM 31.6 °F - 31.5 °F 99% 29.90 in 10.0 mi Calm Calm - N/A   Clear
8:35 PM 31.1 °F 27.7 °F 31.1 °F 100% 29.89 in 10.0 mi ESE 3.5 mph - N/A   Clear
8:55 PM 29.7 °F - 29.5 °F 99% 29.89 in 10.0 mi Calm Calm - N/A   Clear
9:15 PM 29.8 °F - 29.8 °F 100% 29.89 in 10.0 mi Calm Calm - N/A   Clear
9:35 PM 28.6 °F - 28.6 °F 100% 29.88 in 10.0 mi Calm Calm - N/A   Clear
9:55 PM 27.1 °F - 27.1 °F 100% 29.87 in 7.0 mi Calm Calm - N/A   Clear
10:15 PM 28.0 °F - 28.0 °F 100% 29.88 in 10.0 mi Calm Calm - N/A   Clear
10:35 PM 27.1 °F - 27.1 °F 100% 29.87 in 7.0 mi Calm Calm - N/A   Scattered Clouds
10:55 PM 28.2 °F - 28.2 °F 100% 29.87 in 7.0 mi Calm Calm - N/A   Clear
11:15 PM 28.8 °F - 28.8 °F 100% 29.86 in 7.0 mi Calm Calm - N/A   Clear
11:35 PM 28.6 °F - 28.6 °F 100% 29.86 in 7.0 mi Calm Calm - N/A   Clear
11:55 PM 28.4 °F - 28.4 °F 100% 29.85 in 7.0 mi Calm Calm - N/A   Clear